Regional Weather Roundup
Issued by NWS

Home | Current Version | Previous Version | Text Only | Print | Product List | Glossary Off
Versions: 1 2 3 4 5 6 7 8 9 10 11 12 13 14 15 16 17 18 19 20 21 22 23 24 25 26 27 28 29 30 31 32 33 34 35 36 37 38 39 40 41 42 43 44 45 46 47 48 49 50

720
ASUS44 KJAN 011503
RWRMS

MISSISSIPPI HOURLY WEATHER ROUNDUP
NATIONAL WEATHER SERVICE JACKSON MS
1000 AM CDT FRI AUG 01 2014

NOTE: "FAIR: INDICATES FEW OR NO CLOUDS BELOW 12,000 FEET WITH NO
SIGNIFICANT WEATHER AND/OR OBSTRUCTIONS TO VISIBILITY.

MSZ001>002-007>008-010>013-018>021-025>028-034>036-011600-
NORTHWEST MISSISSIPPI

CITY           SKY/WX    TMP DP  RH WIND       PRES   REMARKS
CLARKSDALE     PTSUNNY   77  72  83 CALM      30.06F
CLEVELAND      LGT RAIN  74  71  90 NE3       30.04F
GREENWOOD      PTSUNNY   78  67  68 NE7       30.03F
GREENVILLE     LGT RAIN  73  69  87 CALM      30.04F FOG
GRENADA        FAIR      79  64  61 E3        30.05F
OLIVE BRANCH   PTSUNNY   73  70  88 E6        30.08F
OXFORD         FAIR      77  66  69 NE6       30.08F
TUNICA         MOSUNNY   79  68  69 NE6       30.07S
$$

MSZ003>006-009-014>017-022>024-029>033-037>039-011600-
NORTHEAST MISSISSIPPI

CITY           SKY/WX    TMP DP  RH WIND       PRES   REMARKS
BELMONT        PTSUNNY   76  69  78 E3        30.08S
COLUMBUS AFB   NOT AVBL
CORINTH        FAIR      77  64  65 NE7       30.07S
GOLDN TRIANGLE MOSUNNY   77  66  69 E3        30.06S
STARKVILLE     FAIR      77  66  69 CALM      30.06R
TUPELO         MOSUNNY   78  66  66 E8        30.06S
$$

MSZ040-058-011600-
CENTRAL MISSISSIPPI

CITY           SKY/WX    TMP DP  RH WIND       PRES   REMARKS
JACKSON INTL   CLOUDY    76  65  68 NE3       30.03F
JACKSON HAWKNS CLOUDY    76  61  59 VRB6      30.03F
MERIDIAN KEY   MOSUNNY   81  64  56 CALM      30.04S
MERIDIAN NAS   MOSUNNY   81  65  58 CALM      30.05R
RAYMOND        FAIR      73  68  83 SE3       30.03F
VICKSBURG      RAIN      70  66  87 E6        30.02F
$$

MSZ059>079-011600-
SOUTH MISSISSIPPI

CITY           SKY/WX    TMP DP  RH WIND       PRES   REMARKS
BROOKHAVEN     DRIZZLE   70  68  94 CALM      30.05R
COLUMBIA       FAIR      72  68  88 CALM      30.02F
HATTIESBURG    CLOUDY    73  68  84 CALM      30.05R
MCCOMB         CLOUDY    72  66  81 SE3       30.04R
NATCHEZ        CLOUDY    70  66  88 S8        30.03R
PINE BELT      CLOUDY    70  63  78 CALM      30.05F
$$

MSZ080>082-011600-
COASTAL MISSISSIPPI

CITY           SKY/WX    TMP DP  RH WIND       PRES   REMARKS
BAY ST LOUIS   MOSUNNY  N/A N/A N/A CALM      30.03S
BILOXI         CLOUDY    77  67  72 NE5       30.02R
PASCAGOULA     CLOUDY    78  68  71 CALM      30.03R
GULFPORT       CLOUDY    81  66  60 CALM      30.02R
$$



USA.gov is the U.S. government's official web portal to all federal, state and local government web resources and services.